Location: Unspecified
(0.0000°N, 0.0000°E)
Time: 15:10:21
(UTC+00:00)

IBEX - Pass Details

Date: 29 May 2019
Orbit: 43050 x 333428 km, 30.2° (Epoch: 06 August)

Event Time Altitude Azimuth Distance (km) Brightness Sun altitude
Rises 22:09:22 0° 107° (ESE) 229,470 ? -56.0°
Reaches altitude 10° 22:53:30 10° 108° (ESE) 226,015 ? -63.4°
Maximum altitude 04:18:27 70° 179° (S) 202,895 ? -22.9°
Drops below altitude 10° 09:49:12 10° 248° (WSW) 186,934 ? 52.0°
Sets 10:35:27 0° 248° (WSW) 184,956 ? 60.6°
